When you browse on this site, cookies collect data to enhance your experience and personalize the content and advertising you see.
Visit our Privacy Policy to learn more. By continuing to use the site, you agree to this use of cookies and data.
  • In Germany
  • List of Countries
  • For 7 days
  • Water Temperature
  • Satellite Maps
  • Weather Map
  • Weather Widgets
  • user-avatar
    Login

    Hourly Weather Tel Aviv

    Today, 16 December, Sunday

    Time Temperature Precipitation Wind Pressure Humidity
    00:00 +19°C° 0 mm 5 mps 763 mmHg 58%
    01:00 +19°C° 0 mm 5 mps 763 mmHg 57%
    02:00 +19°C° 0 mm 5 mps 762 mmHg 55%
    03:00 +19°C° 0 mm 4 mps 762 mmHg 55%
    04:00 +19°C° 0 mm 4 mps 762 mmHg 55%
    05:00 +18°C° 0 mm 4 mps 762 mmHg 56%
    06:00 +19°C° 0 mm 4 mps 762 mmHg 55%
    07:00 +19°C° 0 mm 4 mps 762 mmHg 55%
    08:00 +19°C° 0 mm 3 mps 762 mmHg 57%
    09:00 +20°C° 0 mm 4 mps 762 mmHg 54%
    10:00 +21°C° 0 mm 4 mps 762 mmHg 51%
    11:00 +22°C° 0 mm 4 mps 762 mmHg 47%
    12:00 +22°C° 0 mm 4 mps 762 mmHg 47%
    13:00 +24°C° 0 mm 3 mps 762 mmHg 47%
    14:00 +24°C° 0 mm 3 mps 761 mmHg 48%
    15:00 +22°C° 0 mm 3 mps 762 mmHg 51%
    16:00 +22°C° 0 mm 3 mps 762 mmHg 54%
    17:00 +21°C° 0 mm 3 mps 762 mmHg 57%
    18:00 +20°C° 0 mm 3 mps 762 mmHg 59%
    19:00 +20°C° 0 mm 2 mps 762 mmHg 60%
    20:00 +19°C° 0 mm 2 mps 762 mmHg 61%
    21:00 +19°C° 0 mm 2 mps 762 mmHg 61%
    22:00 +19°C° 0 mm 2 mps 762 mmHg 61%
    23:00 +18°C° 0 mm 3 mps 763 mmHg 61%

    Tomorrow, 17 December, Monday

    Time Temperature Precipitation Wind Pressure Humidity
    00:00 +18°C° 0 mm 3 mps 762 mmHg 59%
    01:00 +17°C° 0 mm 3 mps 762 mmHg 57%
    02:00 +17°C° 0 mm 3 mps 762 mmHg 55%
    03:00 +17°C° 0 mm 3 mps 762 mmHg 52%
    04:00 +17°C° 0 mm 4 mps 762 mmHg 50%
    05:00 +17°C° 0 mm 4 mps 762 mmHg 48%
    06:00 +17°C° 0 mm 4 mps 762 mmHg 47%
    07:00 +16°C° 0 mm 5 mps 763 mmHg 47%
    08:00 +17°C° 0 mm 5 mps 763 mmHg 47%
    09:00 +17°C° 0.1 mm 6 mps 763 mmHg 47%
    10:00 +18°C° 0.1 mm 7 mps 763 mmHg 47%
    11:00 +20°C° 0.1 mm 8 mps 763 mmHg 47%
    12:00 +20°C° 0.4 mm 8 mps 763 mmHg 49%
    13:00 +20°C° 0.4 mm 8 mps 763 mmHg 51%
    14:00 +20°C° 0.4 mm 8 mps 762 mmHg 54%
    15:00 +18°C° 0.3 mm 7 mps 763 mmHg 56%
    16:00 +18°C° 0.3 mm 7 mps 763 mmHg 58%
    17:00 +17°C° 0.3 mm 6 mps 763 mmHg 60%
    18:00 +17°C° 0.4 mm 6 mps 763 mmHg 60%
    19:00 +17°C° 0.4 mm 6 mps 764 mmHg 59%
    20:00 +17°C° 0.4 mm 6 mps 764 mmHg 59%
    21:00 +17°C° 0.6 mm 6 mps 764 mmHg 61%
    22:00 +16°C° 0.6 mm 6 mps 764 mmHg 62%
    23:00 +16°C° 0.6 mm 6 mps 764 mmHg 64%

    Day after tomorrow, 18 December, Tuesday

    Time Temperature Precipitation Wind Pressure Humidity
    00:00 +16°C° 0.4 mm 6 mps 765 mmHg 68%
    01:00 +16°C° 0.4 mm 6 mps 765 mmHg 72%
    02:00 +16°C° 0.4 mm 6 mps 765 mmHg 76%
    03:00 +16°C° 0.5 mm 6 mps 765 mmHg 77%
    04:00 +16°C° 0.5 mm 6 mps 765 mmHg 78%
    05:00 +15°C° 0.5 mm 6 mps 765 mmHg 78%
    06:00 +15°C° 0.3 mm 6 mps 765 mmHg 76%
    07:00 +15°C° 0.3 mm 6 mps 765 mmHg 74%
    08:00 +16°C° 0.3 mm 6 mps 766 mmHg 72%
    09:00 +17°C° 0.3 mm 6 mps 766 mmHg 68%
    10:00 +17°C° 0.3 mm 6 mps 766 mmHg 64%
    11:00 +19°C° 0.3 mm 6 mps 766 mmHg 60%
    12:00 +20°C° 0.2 mm 6 mps 765 mmHg 59%
    13:00 +20°C° 0.2 mm 6 mps 765 mmHg 57%
    14:00 +20°C° 0.2 mm 6 mps 765 mmHg 56%
    15:00 +20°C° 0.1 mm 5 mps 765 mmHg 59%
    16:00 +19°C° 0.1 mm 5 mps 765 mmHg 61%
    17:00 +18°C° 0.1 mm 4 mps 764 mmHg 64%
    18:00 +18°C° 0 mm 4 mps 765 mmHg 66%
    19:00 +18°C° 0 mm 4 mps 765 mmHg 67%
    20:00 +17°C° 0 mm 3 mps 765 mmHg 68%
    21:00 +17°C° 0 mm 4 mps 765 mmHg 69%
    22:00 +17°C° 0 mm 4 mps 765 mmHg 69%
    23:00 +17°C° 0 mm 4 mps 765 mmHg 69%

    19 December, Wednesday

    Time Temperature Precipitation Wind Pressure Humidity
    00:00 +15°C° 0 mm 4 mps 764 mmHg 69%
    01:00 +15°C° 0 mm 4 mps 764 mmHg 69%
    02:00 +15°C° 0 mm 5 mps 764 mmHg 69%
    03:00 +15°C° 0 mm 5 mps 764 mmHg 68%
    04:00 +15°C° 0 mm 5 mps 763 mmHg 68%
    05:00 +15°C° 0 mm 5 mps 763 mmHg 67%
    06:00 +15°C° 0.4 mm 6 mps 763 mmHg 66%
    07:00 +15°C° 0.4 mm 6 mps 764 mmHg 64%
    08:00 +16°C° 0.4 mm 6 mps 764 mmHg 63%
    09:00 +17°C° 0.6 mm 7 mps 764 mmHg 62%
    10:00 +18°C° 0.6 mm 8 mps 764 mmHg 61%
    11:00 +18°C° 0.6 mm 8 mps 764 mmHg 60%
    12:00 +18°C° 0.2 mm 9 mps 763 mmHg 58%
    13:00 +19°C° 0.2 mm 9 mps 763 mmHg 55%
    14:00 +19°C° 0.2 mm 9 mps 762 mmHg 53%
    15:00 +18°C° 0.6 mm 8 mps 763 mmHg 56%
    16:00 +17°C° 0.6 mm 8 mps 763 mmHg 59%
    17:00 +17°C° 0.6 mm 7 mps 763 mmHg 62%
    18:00 +16°C° 0.8 mm 7 mps 763 mmHg 64%
    19:00 +16°C° 0.8 mm 6 mps 763 mmHg 66%
    20:00 +16°C° 0.8 mm 6 mps 764 mmHg 68%
    21:00 +16°C° 0.9 mm 6 mps 764 mmHg 70%
    22:00 +15°C° 0.9 mm 6 mps 764 mmHg 72%
    23:00 +15°C° 0.9 mm 6 mps 764 mmHg 74%

    20 December, Thursday

    Time Temperature Precipitation Wind Pressure Humidity
    00:00 +15°C° 1 mm 6 mps 764 mmHg 76%
    01:00 +15°C° 1 mm 6 mps 764 mmHg 77%
    02:00 +15°C° 1 mm 6 mps 764 mmHg 79%
    03:00 +15°C° 0.8 mm 6 mps 764 mmHg 79%
    04:00 +15°C° 0.8 mm 7 mps 764 mmHg 80%
    05:00 +15°C° 0.8 mm 7 mps 764 mmHg 80%
    06:00 +15°C° 0.5 mm 6 mps 764 mmHg 79%
    07:00 +16°C° 0.5 mm 6 mps 765 mmHg 79%
    08:00 +16°C° 0.5 mm 6 mps 765 mmHg 78%
    09:00 +16°C° 0.5 mm 6 mps 765 mmHg 76%
    10:00 +17°C° 0.5 mm 6 mps 765 mmHg 74%
    11:00 +17°C° 0.5 mm 6 mps 766 mmHg 72%
    12:00 +17°C° 0.5 mm 6 mps 765 mmHg 71%
    13:00 +17°C° 0.5 mm 6 mps 765 mmHg 71%
    14:00 +19°C° 0.5 mm 6 mps 765 mmHg 71%
    15:00 +17°C° 0.3 mm 5 mps 765 mmHg 73%
    16:00 +18°C° 0.3 mm 4 mps 765 mmHg 75%
    17:00 +17°C° 0.3 mm 4 mps 766 mmHg 78%
    18:00 +17°C° 0.2 mm 3 mps 766 mmHg 79%
    19:00 +17°C° 0.2 mm 3 mps 767 mmHg 79%
    20:00 +17°C° 0.2 mm 2 mps 767 mmHg 80%
    21:00 +17°C° 0.1 mm 2 mps 767 mmHg 81%
    22:00 +16°C° 0.1 mm 2 mps 767 mmHg 81%
    23:00 +16°C° 0.1 mm 1 mps 767 mmHg 81%

    21 December, Friday

    Time Temperature Precipitation Wind Pressure Humidity
    00:00 +16°C° 0.1 mm 1 mps 767 mmHg 82%
    01:00 +16°C° 0.1 mm 1 mps 767 mmHg 83%
    02:00 +15°C° 0.1 mm 1 mps 767 mmHg 84%
    03:00 +15°C° 0.1 mm 2 mps 767 mmHg 84%
    04:00 +15°C° 0.1 mm 2 mps 767 mmHg 83%
    05:00 +15°C° 0.1 mm 2 mps 767 mmHg 83%
    06:00 +15°C° 0.1 mm 2 mps 767 mmHg 81%
    07:00 +16°C° 0.1 mm 2 mps 768 mmHg 78%
    08:00 +16°C° 0.1 mm 2 mps 768 mmHg 75%
    09:00 +17°C° 0 mm 2 mps 768 mmHg 71%
    10:00 +18°C° 0 mm 2 mps 768 mmHg 66%
    11:00 +19°C° 0 mm 2 mps 768 mmHg 61%
    12:00 +19°C° 0 mm 2 mps 767 mmHg 61%
    13:00 +20°C° 0 mm 2 mps 767 mmHg 61%
    14:00 +20°C° 0 mm 3 mps 766 mmHg 60%
    15:00 +19°C° 0 mm 2 mps 766 mmHg 63%
    16:00 +19°C° 0 mm 2 mps 766 mmHg 66%
    17:00 +18°C° 0 mm 2 mps 767 mmHg 69%
    18:00 +17°C° 0 mm 2 mps 767 mmHg 71%
    19:00 +18°C° 0 mm 1 mps 767 mmHg 73%
    20:00 +18°C° 0 mm 1 mps 767 mmHg 75%
    21:00 +16°C° 0 mm 1 mps 767 mmHg 75%
    22:00 +16°C° 0 mm 1 mps 767 mmHg 76%
    23:00 +15°C° 0 mm 0 mps 767 mmHg 77%
    Show more